FW1747 Weather Reports


Display with metric or nautical units.
time (UTC)temp
F
wind
direction
speed
MPH
gust
MPH
rain 1hr
in
rain 24hr
in
rain mn
in
humidity
%
barometer
mb
20260508041540 60 232 0.0 0.0 0.00 0.00 0.00 61 1017.0
20260508040040 61 232 0.0 0.0 0.00 0.00 0.00 60 1016.9
20260508034540 63 261 0.0 0.0 0.00 0.00 0.00 58 1016.7
20260508033039 63 305 0.0 0.0 0.00 0.00 0.00 56 1016.5
20260508031538 65 161 0.0 0.0 0.00 0.00 0.00 49 1016.2
20260508030038 67 48 0.0 0.0 0.00 0.00 0.00 47 1016.2
20260508024551 68 48 0.0 0.0 0.00 0.00 0.00 46 1016.2
20260508023038 69 48 0.0 0.0 0.00 0.00 0.00 44 1016.3
20260508021536 69 48 0.0 0.0 0.00 0.00 0.00 43 1016.2
20260508020039 70 46 0.0 0.0 0.00 0.00 0.00 40 1016.2
20260508014535 71 360 0.0 0.0 0.00 0.00 0.00 40 1016.2
20260508013033 71 354 0.0 0.0 0.00 0.00 0.00 39 1016.5
20260508011546 70 344 0.0 0.0 0.00 0.00 0.00 39 1016.6
20260508010034 70 32 0.0 0.0 0.00 0.00 0.00 39 1016.6
20260508004535 70 304 0.0 0.0 0.00 0.00 0.00 39 1016.6
20260508003036 69 39 0.0 0.0 0.00 0.00 0.00 41 1016.8
20260508001527 71 120 0.0 0.0 0.00 0.00 0.00 39 1016.8
20260508000026 72 358 0.0 0.0 0.00 0.00 0.00 39 1016.9
20260507234522 71 6 0.0 0.0 0.00 0.00 0.00 40 1017.0
20260507233019 69 311 0.0 0.0 0.00 0.00 0.00 42 1017.1
20260507231516 69 20 0.0 0.0 0.00 0.00 0.00 42 1017.3
20260507230014 69 352 0.0 0.0 0.00 0.00 0.00 43 1017.5
20260507224515 69 298 0.0 0.0 0.00 0.00 0.00 45 1017.8
20260507223009 69 359 0.0 0.0 0.00 0.00 0.00 46 1017.9
20260507221505 68 339 0.0 1.0 0.00 0.00 0.00 47 1018.1
20260507220003 67 340 0.0 0.0 0.00 0.00 0.00 48 1018.3
20260507214501 68 283 0.0 1.0 0.00 0.00 0.00 47 1018.4
20260507213109 66 272 0.0 0.0 0.00 0.00 0.00 50 1018.5
20260507211557 67 347 0.0 1.0 0.00 0.00 0.00 50 1018.8
20260507210055 66 232 0.0 0.0 0.00 0.00 0.00 54 1018.9
20260507204559 64 79 0.0 0.0 0.00 0.00 0.00 57 1019.1
20260507203048 65 18 0.0 0.0 0.00 0.00 0.00 57 1019.3
20260507201544 63 11 0.0 1.0 0.00 0.00 0.00 59 1019.6
20260507200042 63 327 0.0 0.0 0.00 0.00 0.00 60 1019.6
20260507194539 62 342 0.0 1.0 0.00 0.00 0.00 60 1019.8
20260507193037 62 359 0.0 0.0 0.00 0.00 0.00 62 1019.9
20260507191533 60 325 0.0 0.0 0.00 0.00 0.00 64 1020.1
20260507190039 61 12 0.0 0.0 0.00 0.00 0.00 62 1020.3
20260507184537 60 259 0.0 0.0 0.00 0.00 0.00 62 1020.3
20260507183027 59 349 0.0 0.0 0.00 0.00 0.00 64 1020.5
20260507181523 59 327 0.0 0.0 0.00 0.00 0.00 65 1020.5
20260507180023 59 4 0.0 0.0 0.00 0.00 0.00 67 1020.7
20260507174526 58 4 0.0 1.0 0.00 0.00 0.00 66 1020.8
20260507173024 58 265 0.0 1.0 0.00 0.00 0.00 66 1020.8
20260507171514 57 312 0.0 0.0 0.00 0.00 0.00 68 1020.8
20260507170015 57 33 0.0 0.0 0.00 0.00 0.00 70 1020.7
20260507164514 55 1 0.0 0.0 0.00 0.00 0.00 72 1020.8
20260507163006 55 86 0.0 0.0 0.00 0.00 0.00 71 1020.8
20260507161502 55 356 0.0 0.0 0.00 0.00 0.00 73 1020.9
20260507160002 54 15 0.0 0.0 0.00 0.00 0.00 72 1020.9
20260507154600 54 7 0.0 1.0 0.00 0.00 0.00 73 1021.0
20260507153059 54 328 0.0 0.0 0.00 0.00 0.00 72 1021.0
20260507151554 53 4 0.0 0.0 0.00 0.00 0.00 73 1021.1
20260507150053 53 318 0.0 0.0 0.00 0.00 0.00 73 1021.1
20260507144552 53 359 0.0 0.0 0.00 0.00 0.00 73 1021.0
20260507143051 53 360 0.0 1.0 0.00 0.00 0.00 73 1020.9
20260507141554 52 328 0.0 0.0 0.00 0.00 0.00 74 1020.8
20260507140107 52 300 0.0 0.0 0.00 0.00 0.00 74 1020.7
20260507134549 52 6 0.0 0.0 0.00 0.00 0.00 74 1020.6
20260507133048 52 356 0.0 0.0 0.00 0.00 0.00 75 1020.7
20260507131558 52 351 0.0 0.0 0.00 0.00 0.00 75 1020.7
20260507130052 52 359 0.0 0.0 0.00 0.00 0.00 76 1020.8
20260507124602 52 340 0.0 0.0 0.00 0.00 0.00 77 1020.7
20260507123055 52 360 0.0 0.0 0.00 0.00 0.00 77 1020.8
20260507121547 52 1 0.0 0.0 0.00 0.00 0.00 79 1020.9
20260507120045 52 319 0.0 0.0 0.00 0.00 0.00 79 1020.9
20260507114545 52 309 0.0 0.0 0.00 0.00 0.00 79 1021.0
20260507113042 52 309 0.0 0.0 0.00 0.00 0.00 79 1021.1
20260507111543 52 281 0.0 0.0 0.00 0.00 0.00 79 1021.2
20260507110038 52 285 0.0 0.0 0.00 0.00 0.00 79 1021.2
20260507104540 52 285 0.0 0.0 0.00 0.00 0.00 79 1021.2
20260507103036 53 284 0.0 0.0 0.00 0.00 0.00 79 1021.3
20260507101543 53 283 0.0 0.0 0.00 0.00 0.00 79 1021.4
20260507100036 52 283 0.0 0.0 0.00 0.00 0.00 79 1021.5
20260507094533 52 277 0.0 0.0 0.00 0.00 0.00 79 1021.6
20260507093038 53 276 0.0 0.0 0.00 0.00 0.00 79 1021.6
20260507091530 53 276 0.0 0.0 0.00 0.00 0.00 79 1021.8
20260507090032 53 276 0.0 0.0 0.00 0.00 0.00 78 1021.9
20260507084529 52 286 0.0 0.0 0.00 0.00 0.00 78 1021.9
20260507083037 52 274 0.0 0.0 0.00 0.00 0.00 78 1021.8
20260507081529 52 271 0.0 0.0 0.00 0.00 0.00 78 1021.8
20260507080026 52 286 0.0 0.0 0.00 0.00 0.00 78 1021.9
20260507074529 52 233 0.0 0.0 0.00 0.00 0.00 78 1021.9
20260507073025 52 228 0.0 0.0 0.00 0.00 0.00 78 1021.9
20260507071523 52 295 0.0 0.0 0.00 0.00 0.00 78 1021.7
20260507070022 52 274 0.0 0.0 0.00 0.00 0.00 77 1021.8
20260507064521 52 280 0.0 0.0 0.00 0.00 0.00 78 1021.8
20260507063020 52 15 0.0 0.0 0.00 0.00 0.00 78 1021.8
20260507061520 52 283 0.0 0.0 0.00 0.00 0.00 78 1021.8
20260507060023 52 262 0.0 0.0 0.00 0.00 0.00 78 1021.8
20260507054518 52 285 0.0 0.0 0.00 0.00 0.00 78 1021.8
20260507053018 52 343 0.0 0.0 0.00 0.00 0.00 77 1021.8
20260507051517 52 299 0.0 5.0 0.00 0.00 0.00 77 1021.8
20260507050016 52 281 0.0 0.0 0.00 0.00 0.00 78 1021.8
20260507044515 52 271 0.0 0.0 0.00 0.00 0.00 77 1021.7
20260507043015 53 229 0.0 0.0 0.00 0.00 0.00 77 1021.6